When you browse on this site, cookies collect data to enhance your experience and personalize the content and advertising you see.
Visit our Privacy Policy to learn more. By continuing to use the site, you agree to this use of cookies and data.
  • en Suisse
  • Liste des pays
  • À 7 jours
  • Température de l'eau
  • Carte satellitaire
  • Carte météo
  • Widgets météo
  • user-avatar
    Se connecter

    Météo par heure à Ayia Napa

    Ce jour, 17 Juin, Lundi

    Heure Température Précipitation Vent Pression Humidité
    00:00 +27°C° 0.2 mm 4 m/s 753 mmHg 70%
    01:00 +27°C° 0.2 mm 4 m/s 753 mmHg 71%
    02:00 +27°C° 0 mm 4 m/s 753 mmHg 72%
    03:00 +27°C° 0.3 mm 4 m/s 753 mmHg 71%
    04:00 +27°C° 0.3 mm 4 m/s 753 mmHg 71%
    05:00 +26°C° 0.3 mm 3 m/s 753 mmHg 70%
    06:00 +27°C° 0 mm 3 m/s 753 mmHg 63%
    07:00 +28°C° 0 mm 3 m/s 754 mmHg 56%
    08:00 +29°C° 0 mm 3 m/s 754 mmHg 50%
    09:00 +30°C° 0 mm 4 m/s 754 mmHg 48%
    10:00 +32°C° 0 mm 4 m/s 754 mmHg 45%
    11:00 +33°C° 0 mm 5 m/s 754 mmHg 43%
    12:00 +33°C° 0.2 mm 5 m/s 754 mmHg 44%
    13:00 +32°C° 0.2 mm 6 m/s 754 mmHg 46%
    14:00 +32°C° 0.2 mm 6 m/s 754 mmHg 47%
    15:00 +32°C° 0.1 mm 6 m/s 754 mmHg 49%
    16:00 +32°C° 0.1 mm 6 m/s 754 mmHg 50%
    17:00 +32°C° 0.1 mm 6 m/s 754 mmHg 52%
    18:00 +30°C° 0 mm 5 m/s 754 mmHg 54%
    19:00 +29°C° 0 mm 5 m/s 754 mmHg 57%
    20:00 +29°C° 0 mm 5 m/s 754 mmHg 60%
    21:00 +28°C° 0 mm 5 m/s 754 mmHg 64%
    22:00 +28°C° 0 mm 5 m/s 754 mmHg 68%
    23:00 +27°C° 0 mm 5 m/s 754 mmHg 72%

    Demain, 18 Juin, Mardi

    Heure Température Précipitation Vent Pression Humidité
    00:00 +27°C° 0 mm 4 m/s 754 mmHg 73%
    01:00 +27°C° 0 mm 4 m/s 754 mmHg 74%
    02:00 +26°C° 0 mm 4 m/s 754 mmHg 74%
    03:00 +26°C° 0 mm 4 m/s 754 mmHg 76%
    04:00 +26°C° 0 mm 5 m/s 754 mmHg 77%
    05:00 +26°C° 0 mm 5 m/s 754 mmHg 78%
    06:00 +26°C° 0 mm 5 m/s 754 mmHg 74%
    07:00 +27°C° 0 mm 5 m/s 755 mmHg 69%
    08:00 +28°C° 0 mm 5 m/s 755 mmHg 64%
    09:00 +29°C° 0 mm 6 m/s 755 mmHg 60%
    10:00 +30°C° 0 mm 7 m/s 755 mmHg 55%
    11:00 +32°C° 0 mm 7 m/s 755 mmHg 51%
    12:00 +32°C° 0 mm 8 m/s 755 mmHg 52%
    13:00 +32°C° 0 mm 8 m/s 755 mmHg 54%
    14:00 +32°C° 0 mm 9 m/s 755 mmHg 55%
    15:00 +32°C° 0.3 mm 8 m/s 755 mmHg 55%
    16:00 +30°C° 0.3 mm 7 m/s 754 mmHg 55%
    17:00 +30°C° 0.3 mm 6 m/s 754 mmHg 55%
    18:00 +30°C° 0.1 mm 6 m/s 754 mmHg 58%
    19:00 +29°C° 0.1 mm 6 m/s 755 mmHg 61%
    20:00 +28°C° 0.1 mm 6 m/s 755 mmHg 64%
    21:00 +28°C° 0 mm 5 m/s 755 mmHg 65%
    22:00 +28°C° 0 mm 4 m/s 755 mmHg 66%
    23:00 +27°C° 0 mm 3 m/s 755 mmHg 67%

    Après-demain, 19 Juin, Mercredi

    Heure Température Précipitation Vent Pression Humidité
    00:00 +27°C° 0 mm 3 m/s 754 mmHg 69%
    01:00 +27°C° 0 mm 3 m/s 754 mmHg 70%
    02:00 +27°C° 0 mm 3 m/s 754 mmHg 71%
    03:00 +26°C° 0 mm 3 m/s 754 mmHg 73%
    04:00 +26°C° 0 mm 3 m/s 753 mmHg 74%
    05:00 +26°C° 0 mm 3 m/s 753 mmHg 76%
    06:00 +27°C° 0 mm 3 m/s 753 mmHg 72%
    07:00 +27°C° 0 mm 3 m/s 754 mmHg 67%
    08:00 +28°C° 0 mm 3 m/s 754 mmHg 63%
    09:00 +29°C° 0 mm 4 m/s 754 mmHg 59%
    10:00 +30°C° 0 mm 5 m/s 754 mmHg 54%
    11:00 +32°C° 0 mm 6 m/s 754 mmHg 49%
    12:00 +32°C° 0 mm 7 m/s 754 mmHg 51%
    13:00 +32°C° 0 mm 8 m/s 754 mmHg 53%
    14:00 +32°C° 0 mm 9 m/s 754 mmHg 55%
    15:00 +32°C° 0 mm 8 m/s 754 mmHg 55%
    16:00 +30°C° 0 mm 7 m/s 753 mmHg 54%
    17:00 +30°C° 0 mm 7 m/s 753 mmHg 54%
    18:00 +29°C° 0 mm 6 m/s 753 mmHg 58%
    19:00 +29°C° 0 mm 5 m/s 753 mmHg 62%
    20:00 +28°C° 0 mm 4 m/s 753 mmHg 66%
    21:00 +28°C° 0 mm 4 m/s 753 mmHg 66%
    22:00 +28°C° 0 mm 4 m/s 753 mmHg 66%
    23:00 +28°C° 0 mm 4 m/s 753 mmHg 66%

    20 Juin, Jeudi

    Heure Température Précipitation Vent Pression Humidité
    00:00 +27°C° 0 mm 4 m/s 753 mmHg 69%
    01:00 +27°C° 0 mm 4 m/s 753 mmHg 71%
    02:00 +27°C° 0 mm 5 m/s 752 mmHg 73%
    03:00 +27°C° 0 mm 5 m/s 752 mmHg 74%
    04:00 +26°C° 0 mm 5 m/s 752 mmHg 76%
    05:00 +26°C° 0 mm 6 m/s 752 mmHg 78%
    06:00 +27°C° 0 mm 6 m/s 752 mmHg 74%
    07:00 +28°C° 0 mm 6 m/s 752 mmHg 69%
    08:00 +28°C° 0 mm 6 m/s 753 mmHg 65%
    09:00 +29°C° 0 mm 6 m/s 753 mmHg 60%
    10:00 +30°C° 0 mm 7 m/s 753 mmHg 54%
    11:00 +32°C° 0 mm 7 m/s 753 mmHg 49%
    12:00 +33°C° 0 mm 7 m/s 753 mmHg 47%
    13:00 +33°C° 0 mm 8 m/s 753 mmHg 46%
    14:00 +34°C° 0 mm 8 m/s 753 mmHg 44%
    15:00 +33°C° 0 mm 8 m/s 752 mmHg 47%
    16:00 +33°C° 0 mm 7 m/s 752 mmHg 49%
    17:00 +32°C° 0 mm 7 m/s 752 mmHg 52%
    18:00 +30°C° 0 mm 6 m/s 752 mmHg 55%
    19:00 +29°C° 0 mm 6 m/s 752 mmHg 58%
    20:00 +29°C° 0 mm 5 m/s 752 mmHg 61%
    21:00 +28°C° 0 mm 5 m/s 753 mmHg 62%
    22:00 +28°C° 0 mm 4 m/s 753 mmHg 63%
    23:00 +28°C° 0 mm 4 m/s 753 mmHg 63%

    21 Juin, Vendredi

    Heure Température Précipitation Vent Pression Humidité
    00:00 +28°C° 0 mm 4 m/s 753 mmHg 66%
    01:00 +27°C° 0 mm 4 m/s 753 mmHg 68%
    02:00 +27°C° 0 mm 3 m/s 752 mmHg 70%
    03:00 +27°C° 0 mm 3 m/s 752 mmHg 71%
    04:00 +27°C° 0 mm 3 m/s 752 mmHg 73%
    05:00 +26°C° 0 mm 2 m/s 752 mmHg 74%
    06:00 +27°C° 0 mm 2 m/s 753 mmHg 70%
    07:00 +28°C° 0 mm 2 m/s 753 mmHg 66%
    08:00 +29°C° 0 mm 3 m/s 753 mmHg 62%
    09:00 +30°C° 0 mm 3 m/s 753 mmHg 57%
    10:00 +32°C° 0 mm 4 m/s 753 mmHg 53%
    11:00 +33°C° 0 mm 5 m/s 753 mmHg 48%
    12:00 +33°C° 0 mm 6 m/s 753 mmHg 49%
    13:00 +33°C° 0 mm 6 m/s 753 mmHg 50%
    14:00 +33°C° 0 mm 7 m/s 753 mmHg 51%
    15:00 +33°C° 0 mm 7 m/s 753 mmHg 54%
    16:00 +32°C° 0 mm 7 m/s 752 mmHg 58%
    17:00 +32°C° 0 mm 6 m/s 752 mmHg 61%
    18:00 +30°C° 0 mm 6 m/s 752 mmHg 62%
    19:00 +30°C° 0 mm 5 m/s 752 mmHg 63%
    20:00 +29°C° 0 mm 4 m/s 753 mmHg 64%
    21:00 +29°C° 0 mm 4 m/s 753 mmHg 65%
    22:00 +29°C° 0 mm 3 m/s 753 mmHg 66%
    23:00 +28°C° 0 mm 3 m/s 753 mmHg 68%

    22 Juin, Samedi

    Heure Température Précipitation Vent Pression Humidité
    00:00 +28°C° 0 mm 3 m/s 753 mmHg 70%
    01:00 +28°C° 0 mm 2 m/s 753 mmHg 71%
    02:00 +27°C° 0 mm 2 m/s 753 mmHg 73%
    03:00 +27°C° 0 mm 2 m/s 753 mmHg 74%
    04:00 +27°C° 0 mm 3 m/s 753 mmHg 75%
    05:00 +27°C° 0 mm 3 m/s 753 mmHg 77%
    06:00 +28°C° 0 mm 3 m/s 753 mmHg 72%
    07:00 +28°C° 0 mm 3 m/s 753 mmHg 68%
    08:00 +29°C° 0 mm 3 m/s 753 mmHg 64%
    09:00 +30°C° 0 mm 4 m/s 754 mmHg 59%
    10:00 +33°C° 0 mm 4 m/s 754 mmHg 54%
    11:00 +34°C° 0 mm 5 m/s 754 mmHg 49%
    12:00 +34°C° 0 mm 6 m/s 754 mmHg 49%
    13:00 +34°C° 0 mm 6 m/s 754 mmHg 50%
    14:00 +34°C° 0 mm 7 m/s 753 mmHg 51%
    15:00 +34°C° 0 mm 6 m/s 753 mmHg 52%
    16:00 +33°C° 0 mm 6 m/s 753 mmHg 53%
    17:00 +33°C° 0 mm 6 m/s 753 mmHg 55%
    18:00 +32°C° 0 mm 6 m/s 753 mmHg 57%
    19:00 +30°C° 0 mm 5 m/s 753 mmHg 59%
    20:00 +30°C° 0 mm 5 m/s 754 mmHg 61%
    21:00 +29°C° 0 mm 4 m/s 754 mmHg 61%
    22:00 +29°C° 0 mm 3 m/s 754 mmHg 61%
    23:00 +29°C° 0 mm 3 m/s 754 mmHg 61%
    Voir plus